Location: Barrio Las Umbrías
(40.4173°N, 4.8685°W)
Time: 13:01:33
(UTC+00:00)

NOSS 2-2 (D) - Pass Details

Date: 17 August 2022
Orbit: 430 x 1768 km, 63.3° (Epoch: 23 September)

Event Time Altitude Azimuth Distance (km) Brightness Sun altitude
Rises 20:44:55 0° 215° (SW) 2,532 6.7 -16.3°
Reaches altitude 10° 20:47:07 10° 217° (SW) 1,580 5.7 -16.6°
Maximum altitude 20:50:28 80° 304° (NW) 443 2.9 -17.2°
Drops below altitude 10° 20:53:47 10° 32° (NNE) 1,558 5.7 -17.7°
Sets 20:55:56 0° 34° (NE) 2,492 6.7 -18.0°
